| time (UTC) | temp F | wind direction | speed MPH | gust MPH | rain 1hr in | rain 24hr in | rain mn in | humidity % | barometer mb |
| 20260901043126 | 75 | 74 | 6.0 | 15.0 | 0.01 | 0.02 | 0.02 | 51 | 1019.2 |
| 20260901041636 | 75 | 99 | 12.0 | 18.0 | 0.00 | 0.01 | 0.01 | 52 | 1018.9 |
| 20260901040129 | 76 | 140 | 10.0 | 17.0 | 0.01 | 0.01 | 0.01 | 50 | 1019.1 |
| 20260901034702 | 76 | 131 | 12.0 | 20.0 | 0.01 | 0.01 | 0.01 | 50 | 1018.8 |
| 20260901033154 | 76 | 206 | 16.0 | 29.0 | 0.01 | 0.01 | 0.01 | 52 | 1018.5 |
| 20260901031628 | 87 | 227 | 12.0 | 18.0 | 0.00 | 0.00 | 0.00 | 32 | 1016.8 |
| 20260901030140 | 90 | 127 | 10.0 | 16.0 | 0.00 | 0.00 | 0.00 | 20 | 1015.6 |
| 20260901024635 | 88 | 96 | 7.0 | 10.0 | 0.00 | 0.00 | 0.00 | 24 | 1015.2 |
| 20260901023128 | 87 | 104 | 1.0 | 4.0 | 0.00 | 0.00 | 0.00 | 24 | 1015.0 |
| 20260901021625 | 88 | 149 | 1.0 | 4.0 | 0.00 | 0.00 | 0.00 | 23 | 1014.6 |
| 20260901020137 | 86 | 112 | 1.0 | 3.0 | 0.00 | 0.00 | 0.00 | 25 | 1014.6 |
| 20260901014648 | 87 | 349 | 0.0 | 1.0 | 0.00 | 0.00 | 0.00 | 22 | 1014.2 |
| 20260901013123 | 88 | 346 | 0.0 | 1.0 | 0.00 | 0.00 | 0.00 | 21 | 1014.1 |
| 20260901011635 | 90 | 341 | 0.0 | 1.0 | 0.00 | 0.00 | 0.00 | 20 | 1014.1 |
| 20260901010131 | 92 | 298 | 0.0 | 1.0 | 0.00 | 0.00 | 0.00 | 16 | 1014.2 |
| 20260901004622 | 95 | 233 | 2.0 | 6.0 | 0.00 | 0.00 | 0.00 | 13 | 1013.9 |
| 20260901003134 | 97 | 212 | 4.0 | 10.0 | 0.00 | 0.00 | 0.00 | 12 | 1014.0 |
| 20260901001630 | 96 | 237 | 5.0 | 9.0 | 0.00 | 0.00 | 0.00 | 13 | 1014.1 |
| 20260901000120 | 95 | 219 | 6.0 | 10.0 | 0.00 | 0.00 | 0.00 | 13 | 1014.1 |
| 20260831234636 | 95 | 242 | 4.0 | 9.0 | 0.00 | 0.00 | 0.00 | 13 | 1014.0 |
| 20260831233128 | 97 | 239 | 7.0 | 13.0 | 0.00 | 0.00 | 0.00 | 12 | 1013.8 |
| 20260831231623 | 98 | 237 | 9.0 | 16.0 | 0.00 | 0.00 | 0.00 | 12 | 1013.8 |
| 20260831230137 | 99 | 182 | 6.0 | 13.0 | 0.00 | 0.00 | 0.00 | 11 | 1013.9 |
| 20260831224628 | 100 | 227 | 4.0 | 8.0 | 0.00 | 0.00 | 0.00 | 12 | 1013.9 |
| 20260831223123 | 99 | 144 | 0.0 | 10.0 | 0.00 | 0.00 | 0.00 | 12 | 1014.1 |
| 20260831221634 | 100 | 203 | 9.0 | 13.0 | 0.00 | 0.00 | 0.00 | 12 | 1014.5 |
| 20260831220130 | 100 | 192 | 7.0 | 11.0 | 0.00 | 0.00 | 0.00 | 12 | 1014.6 |
| 20260831214642 | 100 | 229 | 0.0 | 6.0 | 0.00 | 0.00 | 0.00 | 12 | 1014.6 |
| 20260831213137 | 100 | 176 | 6.0 | 14.0 | 0.00 | 0.00 | 0.00 | 12 | 1014.9 |
| 20260831211628 | 98 | 248 | 3.0 | 9.0 | 0.00 | 0.00 | 0.00 | 15 | 1015.1 |
| 20260831210140 | 99 | 212 | 1.0 | 8.0 | 0.00 | 0.00 | 0.00 | 16 | 1015.5 |
| 20260831204635 | 97 | 357 | 4.0 | 8.0 | 0.00 | 0.00 | 0.00 | 18 | 1015.9 |
| 20260831203128 | 96 | 221 | 1.0 | 11.0 | 0.00 | 0.00 | 0.00 | 18 | 1016.2 |
| 20260831200134 | 96 | 270 | 2.0 | 5.0 | 0.00 | 0.00 | 0.00 | 20 | 1016.7 |
| 20260831194629 | 96 | 180 | 3.0 | 6.0 | 0.00 | 0.00 | 0.00 | 20 | 1017.0 |
| 20260831193121 | 95 | 321 | 1.0 | 6.0 | 0.00 | 0.00 | 0.00 | 21 | 1017.1 |
| 20260831191633 | 96 | 216 | 4.0 | 8.0 | 0.00 | 0.00 | 0.00 | 21 | 1017.3 |
| 20260831190129 | 94 | 141 | 3.0 | 8.0 | 0.00 | 0.00 | 0.00 | 21 | 1017.7 |
| 20260831184621 | 94 | 298 | 1.0 | 4.0 | 0.00 | 0.00 | 0.00 | 23 | 1017.9 |
| 20260831183137 | 94 | 259 | 1.0 | 4.0 | 0.00 | 0.00 | 0.00 | 24 | 1018.0 |
| 20260831181648 | 93 | 107 | 1.0 | 4.0 | 0.00 | 0.00 | 0.00 | 23 | 1018.3 |
| 20260831180139 | 92 | 250 | 0.0 | 6.0 | 0.00 | 0.00 | 0.00 | 24 | 1018.4 |
| 20260831174635 | 91 | 274 | 0.0 | 6.0 | 0.00 | 0.00 | 0.00 | 25 | 1018.6 |
| 20260831173127 | 91 | 217 | 0.0 | 5.0 | 0.00 | 0.00 | 0.00 | 26 | 1018.7 |
| 20260831171622 | 91 | 94 | 0.0 | 3.0 | 0.00 | 0.00 | 0.00 | 26 | 1018.8 |
| 20260831170134 | 89 | 333 | 2.0 | 5.0 | 0.00 | 0.00 | 0.00 | 27 | 1018.9 |
| 20260831164621 | 89 | 300 | 1.0 | 7.0 | 0.00 | 0.00 | 0.00 | 27 | 1019.0 |
| 20260831163136 | 88 | 354 | 2.0 | 6.0 | 0.00 | 0.00 | 0.00 | 27 | 1019.0 |
| 20260831161627 | 87 | 296 | 1.0 | 8.0 | 0.00 | 0.00 | 0.00 | 30 | 1018.8 |
| 20260831160144 | 86 | 315 | 2.0 | 6.0 | 0.00 | 0.00 | 0.00 | 29 | 1018.8 |
| 20260831154629 | 85 | 350 | 1.0 | 3.0 | 0.00 | 0.00 | 0.00 | 31 | 1018.7 |
| 20260831153139 | 84 | 2 | 0.0 | 6.0 | 0.00 | 0.00 | 0.00 | 32 | 1018.8 |
| 20260831151634 | 84 | 298 | 1.0 | 6.0 | 0.00 | 0.00 | 0.00 | 34 | 1018.9 |
| 20260831150144 | 82 | 313 | 1.0 | 5.0 | 0.00 | 0.00 | 0.00 | 33 | 1018.8 |
| 20260831144634 | 81 | 303 | 1.0 | 6.0 | 0.00 | 0.00 | 0.00 | 36 | 1018.7 |
| 20260831143126 | 79 | 348 | 1.0 | 3.0 | 0.00 | 0.00 | 0.00 | 38 | 1018.4 |
| 20260831141639 | 77 | 339 | 1.0 | 4.0 | 0.00 | 0.00 | 0.00 | 38 | 1018.2 |
| 20260831140132 | 76 | 26 | 2.0 | 4.0 | 0.00 | 0.00 | 0.00 | 39 | 1018.0 |
| 20260831134645 | 73 | 333 | 0.0 | 4.0 | 0.00 | 0.00 | 0.00 | 45 | 1017.9 |
| 20260831133136 | 71 | 314 | 1.0 | 3.0 | 0.00 | 0.00 | 0.00 | 47 | 1017.6 |
| 20260831131653 | 70 | 355 | 0.0 | 0.0 | 0.00 | 0.00 | 0.00 | 53 | 1017.2 |
| 20260831130123 | 72 | 239 | 0.0 | 1.0 | 0.00 | 0.00 | 0.00 | 47 | 1017.0 |
| 20260831124639 | 74 | 161 | 0.0 | 0.0 | 0.00 | 0.00 | 0.00 | 44 | 1016.9 |
| 20260831123132 | 74 | 170 | 0.0 | 1.0 | 0.00 | 0.00 | 0.00 | 44 | 1016.7 |
| 20260831121649 | 74 | 135 | 0.0 | 0.0 | 0.00 | 0.00 | 0.00 | 43 | 1016.5 |
| 20260831120120 | 75 | 167 | 0.0 | 0.0 | 0.00 | 0.00 | 0.00 | 43 | 1016.5 |
| 20260831114631 | 77 | 161 | 0.0 | 4.0 | 0.00 | 0.00 | 0.00 | 40 | 1016.6 |
| 20260831113148 | 74 | 199 | 0.0 | 1.0 | 0.00 | 0.00 | 0.00 | 43 | 1016.6 |
| 20260831111639 | 72 | 292 | 0.0 | 1.0 | 0.00 | 0.00 | 0.00 | 47 | 1016.7 |
| 20260831110156 | 74 | 265 | 0.0 | 0.0 | 0.00 | 0.00 | 0.00 | 44 | 1016.6 |
| 20260831104628 | 75 | 225 | 0.0 | 0.0 | 0.00 | 0.00 | 0.00 | 43 | 1016.6 |
| 20260831103141 | 74 | 145 | 0.0 | 1.0 | 0.00 | 0.00 | 0.00 | 43 | 1016.5 |
| 20260831101635 | 73 | 123 | 0.0 | 0.0 | 0.00 | 0.00 | 0.00 | 41 | 1016.7 |
| 20260831100129 | 73 | 123 | 0.0 | 0.0 | 0.00 | 0.00 | 0.00 | 39 | 1016.5 |
| 20260831094625 | 74 | 256 | 0.0 | 1.0 | 0.00 | 0.00 | 0.00 | 37 | 1016.7 |
| 20260831093158 | 77 | 88 | 0.0 | 6.0 | 0.00 | 0.00 | 0.00 | 33 | 1016.7 |
| 20260831091629 | 75 | 133 | 0.0 | 1.0 | 0.00 | 0.00 | 0.00 | 36 | 1016.7 |
| 20260831090146 | 76 | 338 | 0.0 | 1.0 | 0.00 | 0.00 | 0.00 | 34 | 1016.6 |
| 20260831084636 | 76 | 83 | 0.0 | 0.0 | 0.00 | 0.00 | 0.00 | 35 | 1016.6 |
| 20260831083133 | 77 | 119 | 0.0 | 1.0 | 0.00 | 0.00 | 0.00 | 34 | 1016.5 |
| 20260831081623 | 78 | 61 | 0.0 | 3.0 | 0.00 | 0.00 | 0.00 | 31 | 1016.4 |
| 20260831080121 | 77 | 69 | 0.0 | 1.0 | 0.00 | 0.00 | 0.00 | 34 | 1016.5 |
| 20260831074632 | 79 | 67 | 0.0 | 1.0 | 0.00 | 0.00 | 0.00 | 31 | 1016.7 |
| 20260831073124 | 80 | 251 | 0.0 | 4.0 | 0.00 | 0.00 | 0.00 | 29 | 1016.6 |
| 20260831071621 | 84 | 154 | 0.0 | 4.0 | 0.00 | 0.00 | 0.00 | 24 | 1016.6 |
| 20260831070133 | 84 | 135 | 2.0 | 4.0 | 0.00 | 0.00 | 0.00 | 25 | 1016.4 |
| 20260831064650 | 83 | 153 | 3.0 | 6.0 | 0.00 | 0.00 | 0.00 | 26 | 1016.3 |
| 20260831063142 | 83 | 177 | 1.0 | 4.0 | 0.00 | 0.00 | 0.00 | 26 | 1016.3 |
| 20260831061655 | 86 | 204 | 1.0 | 10.0 | 0.00 | 0.00 | 0.00 | 24 | 1016.2 |
| 20260831060152 | 85 | 135 | 4.0 | 7.0 | 0.00 | 0.00 | 0.00 | 24 | 1016.1 |
| 20260831054622 | 85 | 152 | 2.0 | 6.0 | 0.00 | 0.00 | 0.00 | 24 | 1016.1 |
| 20260831053200 | 85 | 137 | 2.0 | 5.0 | 0.00 | 0.00 | 0.00 | 25 | 1016.1 |
| 20260831051629 | 84 | 178 | 0.0 | 2.0 | 0.00 | 0.00 | 0.00 | 26 | 1016.2 |
| 20260831050141 | 85 | 131 | 0.0 | 1.0 | 0.00 | 0.00 | 0.00 | 27 | 1016.4 |
| 20260831044636 | 85 | 81 | 0.0 | 0.0 | 0.00 | 0.00 | 0.00 | 26 | 1016.4 |